CZ-3C DEB (VEB), 38095

Orbit data source: Space-Track

CZ-3C DEB (VEB), 38095 is space debris in HEO originally from a launch on Fri, 24 Feb 2012 UTC launched from the Xichang Space Center, China (XSC). Debris objects in space refer to the collection of defunct objects orbiting the Earth. Examples of debris include non-operational satellites, rocket bodies, and fragments generated from explosions, collisions, or faulty payload assembly.

Loading next visibility...
Identifier
38095, 2012-008C
Orbit
HEO
Country
Flag of CNCN / PRC
Related business
Manufacturer
CALT
Mission
Spacecraft
Bus & Motor
Unknown
Mass
Unknown
Launch date (UTC)
2012-02-24 (14 years ago)
Launch vehicle
Unknown
Launch site
Xichang Space Center, China (XSC)
Object type
Payload
Rocket body
Debris
Shape & HBR
Cyl, 1.5 m
Radar Cross Section
5.890 m², Large (>1 m²)

Expand to show TLE details & history
Last TLE update: 12 hours ago

TLE from 12 hours ago
0 CZ-3C DEB (VEB)
1 38095U 12008C   26120.03397449  .00036968  00000-0  31389-2 0  9994
2 38095  21.0145  35.6408 6562347  21.9513 356.4083  3.26351987138342
Epoch: 2026-04-30T00:48Z
TLE epoch observation values (Epoch: 2026-04-30T00:48:55.395Z)
Latitude
-0.00019°
Longitude
165.40953°
Altitude
401.13 km
Speed
9.84 km/s
True Right ascension
02h 22m 30s
True Declination
0° 00' 01"
Sunlit
Object was in daylight at epoch
Visualization orbit readout
Latitude
Unknown
Longitude
Unknown
Altitude
Unknown
Speed
Unknown
Apparent Right ascension
Unknown
Apparent Declination
Unknown
Sunlit
N/A
Visualization observer readout
Local Sidereal Time
20:14:22
Azimuth
Unknown
Elevation
Unknown
Doppler factor
Unknown
Orbital elements
Apogee altitude
25,427.003 km
Perigee altitude
223.284 km
Semi-major axis
19,203.28 km
Eccentricity
0.65623
Inclination
21.0145°
RAAN
35.6408°
Arg. of periapsis
21.9513°
True anomaly
337.53209°
Mean anomaly
356.4083°
Eccentric anomaly
349.65889°
Mean motion
0.81561 °/min
Orbital period
441.39 mins
BSTAR
0.0031389
Loading maneuver chart data...
Computing Atmospheric mass density...
Loading historical data...
Loading historical data...
Loading historical data...
Loading historical data...
Loading historical data...
Loading historical data...
Loading historical data...

Documentation

Showing up to 5 results
|